Vertical_Velocity
0 1 -1 -4 -5 -2 -0 -1 1 0 0 1 -0 1 0 -0 -1 -1 6 -0 -1 -1 1 -2 1 5 -2 -0 2 -1 -0 1 2 -4 -1 0 0 0 1 0 -0 -1 0
5 1 -0 -1 -2 -4 -6 1 -2 0 -0 -1 0 -0 0 2 -0 -1 1 4 1 1 -2 -0 -1 2 2 1 -1 0 1 2 2 -1 -4 -3 -2 1 0 1 -1 -1 -1
-4 -1 6 2 -2 -2 -3 -6 -4 1 -1 -2 1 -2 1 1 -0 2 0 0 2 2 1 0 -1 2 0 4 -1 1 -0 2 2 0 1 2 -0 0 1 0 1 1 -2
-0 -7 -8 -1 3 0 -3 -4 -5 -3 -0 -4 4 -2 -4 1 3 1 1 -1 1 1 2 2 -0 -1 2 2 -1 2 3 1 3 0 0 -1 0 -0 -1 -2 1 0 1
14 7 -2 -6 -10 -1 -1 0 -3 -5 -6 0 -4 1 1 -1 -0 1 1 -0 -1 2 3 -0 1 -1 -0 2 3 -1 -1 0 0 0 1 3 1 2 -0 2 0 -1 0
-6 -2 5 12 -1 -6 -5 -3 2 -6 -3 -3 -5 5 -5 1 2 2 1 0 3 0 -0 4 -0 3 2 2 4 2 -2 -0 1 -2 -0 1 1 -2 -0 -1 -0 0 -1
-8 -6 -5 -2 -1 8 1 -7 -6 1 -6 -5 -0 -7 7 2 3 1 9 1 1 3 1 -2 6 -1 1 1 1 4 -0 2 2 2 -0 -5 1 1 -1 0 1 -1 -1
-12 -9 -5 -5 -3 -1 -1 1 -6 -2 -1 -4 -9 -4 8 8 -5 -4 -1 -2 3 16 1 2 -0 7 2 1 0 6 2 3 14 -8 -6 0 1 1 0 0 2 2 0
-4 -6 -7 -5 -6 -11 -0 -4 -0 -7 1 -1 -5 -5 4 -7 -6 5 4 -1 4 2 6 2 -1 -4 9 1 2 -1 1 -0 -4 17 2 1 -2 -2 1 0 0 0 -1
-3 -3 -2 -2 -0 -3 -4 -4 -6 -5 -1 6 -4 -8 -8 7 0 11 3 3 4 -8 3 -2 0 6 -1 11 7 -3 4 1 1 3 6 2 -3 3 0 1 -2 2 0
-2 -0 -1 -1 -0 -1 -0 0 -3 -0 -4 8 -4 -5 -5 -1 10 6 0 1 -7 -1 -1 -8 -1 -4 2 1 1 5 3 6 -5 4 2 3 1 1 -0 3 1 0 1
-0 -1 -2 -0 -0 -1 -2 -1 -2 -4 2 6 3 3 -4 -2 5 -4 2 -1 -1 5 -3 -3 -0 2 -0 0 2 6 1 1 1 1 -11 73 -6 -2 -2 -8 2 1 -0
-3 -3 -4 -3 -3 -2 -2 -4 -2 -3 -5 3 7 7 2 -1 4 -4 1 6 -3 3 6 1 -1 1 5 -1 -5 1 6 0 2 -2 -5 -5 -11 -9 -8 0 -1 -1 2
1 -2 -4 -5 -2 -4 -2 -3 -4 -0 -4 -4 1 1 5 5 3 -1 -6 6 1 6 -3 7 -5 3 7 6 5 8 5 7 -2 -5 -7 36 2 10 15 0 1 -3 1
1 1 -2 -2 -1 0 -3 -5 -3 -1 -2 -3 1 -1 -1 8 3 5 -1 -1 -5 2 -7 5 11 -2 -15 -13 10 -0 12 6 -1 -7 -0 -7 -9 -0 19 6 2 -2 -1
-3 -1 -2 -3 -1 -1 -2 -5 -3 -0 -4 -1 0 -1 -0 2 3 1 -1 12 1 -1 -12 17 14 -1 -1 1 7 -18 -9 13 11 -6 -1 -3 -7 51 17 -4 -1 -2 4
-3 -1 -1 -0 -1 -2 -4 -3 -3 -2 -3 -0 -2 0 -0 2 0 2 7 3 3 -5 -13 7 3 1 -11 -2 4 4 2 -7 31 -2 -1 1 -6 -10 -0 0 -2 -4 0
-1 -4 -3 -0 -2 -1 -2 -3 -3 -4 -2 -1 1 -1 2 -1 2 -3 2 6 5 2 -8 22 3 -3 17 -2 -0 1 3 0 -0 3 3 -2 -5 -3 -11 60 -4 3 -1
-3 -2 -5 -1 -1 -2 -1 -4 -4 -3 -2 1 1 -1 2 -1 2 0 -1 4 5 -0 -3 16 3 6 2 -5 6 -5 2 14 5 5 26 6 1 -1 -6 -3 -1 1 0
-1 -1 -1 -1 -1 -0 -2 -3 -4 -2 -1 2 0 0 0 -1 1 0 -2 2 1 5 1 15 5 -1 7 -4 -1 17 8 3 0 -1 1 -2 4 0 0 1 -10 -2 -2
-3 -2 0 -1 -1 -1 -2 -1 0 -0 1 3 1 2 2 -0 0 1 -0 1 -0 3 0 9 7 2 5 -4 -0 8 20 9 6 5 0 0 -4 2 -3 -4 -0 0 2
-2 -1 -1 -0 -1 -2 -1 1 1 1 1 2 1 3 1 -1 1 -0 0 -0 3 2 7 1 11 6 5 3 2 -1 16 2 -1 1 -4 8 2 -5 5 0 6 3 0
-0 -0 -1 -1 -0 0 0 0 1 3 2 3 2 1 1 1 0 2 2 1 -4 -1 3 1 8 7 6 11 8 -2 5 -1 -14 -5 -12 -10 -8 1 -0 1 7 4 7
-0 -1 -2 0 0 -0 1 2 3 4 3 0 1 -2 -3 -3 -0 1 -0 -0 1 -0 -7 -3 12 10 16 7 5 -7 13 6 -5 -5 -2 -15 6 1 -3 4 7 4 3
-1 -0 0 1 1 2 1 2 3 4 2 -1 -0 1 1 0 0 -2 -1 2 1 3 -2 -1 5 7 4 -2 14 5 20 12 3 -1 1 1 -1 4 -7 7 3 3 0
-0 1 1 0 1 2 1 2 2 2 1 1 2 0 2 0 -3 -2 0 1 -3 3 -3 2 5 9 -2 2 3 -4 7 9 5 4 2 0 11 2 -7 -3 -0 -2 -2
Height
5731 5732 5732 5734 5737 5738 5740 5742 5744 5748 5752 5755 5758 5762 5765 5769 5774 5779 5781 5784 5788 5795 5798 5802 5808 5812 5815 5819 5822 5826 5830 5835 5837 5841 5847 5850 5853 5856 5859 5860 5863 5866 5868
5712 5712 5713 5715 5717 5719 5722 5724 5727 5731 5735 5739 5743 5748 5752 5756 5761 5767 5771 5773 5778 5782 5788 5791 5797 5803 5807 5810 5814 5818 5822 5826 5830 5833 5839 5843 5847 5850 5854 5856 5858 5860 5863
5694 5694 5693 5693 5695 5698 5701 5704 5708 5711 5716 5721 5727 5731 5737 5742 5747 5753 5758 5761 5766 5770 5776 5780 5785 5792 5798 5803 5805 5810 5815 5819 5822 5826 5831 5836 5839 5843 5846 5850 5852 5854 5857
5666 5669 5672 5672 5673 5674 5678 5682 5686 5690 5695 5701 5707 5714 5720 5726 5732 5738 5744 5749 5753 5760 5764 5770 5774 5780 5787 5794 5798 5802 5806 5811 5815 5818 5822 5827 5831 5835 5839 5842 5846 5848 5851
5636 5638 5640 5643 5648 5651 5652 5657 5662 5667 5673 5679 5687 5695 5702 5708 5715 5721 5729 5735 5739 5745 5752 5757 5763 5768 5775 5781 5789 5792 5798 5802 5806 5810 5813 5817 5822 5826 5831 5835 5838 5841 5844
5601 5601 5604 5610 5615 5620 5625 5629 5635 5640 5649 5655 5664 5673 5680 5690 5697 5705 5712 5719 5725 5731 5737 5743 5749 5755 5762 5769 5777 5783 5787 5792 5797 5801 5804 5809 5813 5817 5823 5827 5831 5835 5837
5570 5568 5567 5569 5575 5585 5592 5598 5604 5612 5621 5629 5639 5648 5660 5668 5677 5685 5694 5702 5710 5716 5722 5729 5735 5742 5747 5756 5764 5771 5776 5781 5786 5790 5793 5799 5805 5809 5813 5818 5823 5827 5831
5534 5529 5527 5529 5534 5543 5552 5562 5572 5581 5591 5599 5610 5622 5635 5644 5652 5665 5674 5684 5693 5701 5706 5715 5720 5727 5734 5741 5751 5758 5765 5771 5777 5776 5782 5789 5795 5801 5805 5809 5813 5818 5823
5502 5498 5494 5493 5494 5498 5507 5518 5533 5546 5559 5567 5579 5593 5605 5616 5631 5642 5653 5663 5672 5680 5689 5697 5705 5712 5719 5727 5736 5743 5751 5756 5762 5767 5773 5780 5784 5791 5796 5800 5805 5809 5814
5468 5465 5465 5466 5467 5469 5472 5478 5489 5507 5523 5534 5547 5561 5577 5594 5604 5618 5630 5640 5649 5659 5669 5679 5686 5697 5706 5713 5721 5730 5738 5745 5752 5758 5762 5768 5774 5779 5785 5790 5794 5800 5806
5449 5448 5448 5449 5451 5452 5453 5456 5460 5469 5484 5499 5512 5528 5546 5562 5577 5591 5604 5616 5628 5641 5649 5659 5671 5682 5690 5697 5705 5714 5723 5732 5740 5748 5753 5757 5763 5767 5775 5781 5784 5790 5797
5434 5433 5433 5434 5434 5434 5436 5439 5442 5445 5451 5463 5476 5495 5512 5530 5546 5564 5582 5595 5608 5620 5633 5644 5656 5667 5677 5684 5692 5702 5709 5717 5727 5734 5744 5738 5752 5759 5764 5770 5775 5780 5786
5419 5417 5417 5416 5415 5415 5416 5418 5423 5427 5430 5435 5443 5459 5478 5497 5516 5535 5555 5571 5584 5601 5614 5626 5640 5651 5662 5671 5679 5688 5693 5701 5711 5720 5730 5738 5743 5744 5753 5760 5765 5770 5775
5405 5402 5399 5398 5396 5395 5396 5397 5402 5406 5411 5415 5420 5429 5446 5465 5483 5504 5525 5546 5562 5578 5593 5607 5621 5635 5646 5655 5664 5674 5678 5683 5694 5705 5716 5718 5729 5734 5739 5747 5754 5759 5764
5389 5385 5381 5379 5377 5376 5376 5377 5381 5385 5389 5396 5401 5407 5418 5435 5452 5473 5495 5516 5536 5554 5570 5589 5604 5609 5622 5635 5647 5654 5660 5669 5677 5689 5702 5710 5719 5722 5724 5731 5742 5748 5754
5372 5367 5363 5361 5359 5358 5357 5357 5361 5364 5368 5375 5382 5388 5396 5408 5423 5442 5467 5492 5510 5531 5549 5569 5583 5591 5606 5621 5633 5640 5646 5655 5662 5673 5684 5694 5705 5704 5710 5721 5729 5737 5744
5355 5351 5347 5344 5341 5339 5337 5338 5340 5343 5347 5353 5362 5370 5378 5386 5400 5417 5438 5460 5484 5506 5530 5545 5560 5571 5588 5603 5616 5627 5635 5643 5647 5656 5667 5677 5689 5697 5701 5710 5719 5725 5734
5339 5334 5330 5326 5323 5321 5319 5320 5320 5321 5325 5332 5341 5352 5361 5369 5380 5395 5413 5435 5459 5482 5505 5523 5538 5556 5573 5586 5600 5610 5620 5629 5636 5642 5652 5662 5673 5684 5694 5694 5707 5715 5722
5324 5318 5313 5310 5307 5305 5304 5302 5301 5301 5305 5312 5323 5335 5345 5353 5363 5376 5393 5411 5434 5457 5483 5501 5521 5537 5552 5568 5585 5593 5603 5613 5621 5630 5638 5648 5659 5666 5679 5687 5693 5700 5707
5310 5304 5299 5296 5294 5292 5290 5287 5285 5285 5289 5297 5308 5320 5331 5340 5349 5360 5375 5392 5412 5435 5458 5479 5499 5518 5535 5552 5567 5576 5584 5597 5607 5614 5624 5634 5643 5652 5661 5669 5678 5686 5694
5299 5293 5288 5284 5282 5281 5279 5276 5275 5276 5280 5288 5297 5309 5319 5328 5337 5346 5358 5374 5392 5413 5434 5457 5479 5498 5516 5532 5548 5556 5568 5582 5590 5600 5611 5619 5629 5639 5646 5654 5664 5673 5682
5291 5286 5281 5277 5275 5273 5271 5269 5269 5271 5275 5282 5290 5300 5309 5316 5325 5334 5344 5358 5374 5394 5415 5434 5456 5477 5496 5511 5525 5536 5549 5563 5571 5584 5595 5603 5616 5624 5634 5642 5652 5661 5669
5288 5282 5278 5274 5271 5268 5266 5265 5266 5269 5272 5278 5284 5292 5299 5306 5313 5322 5331 5342 5357 5375 5396 5413 5438 5458 5476 5491 5510 5520 5528 5543 5556 5568 5579 5589 5601 5611 5621 5629 5639 5648 5656
5286 5280 5276 5272 5269 5266 5264 5263 5264 5267 5269 5273 5278 5284 5290 5296 5303 5310 5319 5329 5344 5359 5378 5399 5423 5441 5457 5472 5490 5505 5512 5526 5541 5553 5566 5578 5588 5598 5609 5617 5625 5634 5642
5285 5280 5276 5273 5269 5266 5264 5263 5263 5264 5266 5269 5272 5277 5282 5288 5293 5300 5310 5319 5331 5346 5360 5378 5399 5419 5436 5454 5471 5488 5500 5508 5525 5539 5552 5563 5576 5585 5593 5602 5611 5620 5628
5284 5280 5276 5273 5270 5267 5265 5264 5263 5262 5263 5265 5267 5270 5274 5279 5283 5290 5299 5309 5319 5332 5345 5360 5376 5397 5415 5434 5452 5471 5473 5492 5508 5521 5534 5549 5561 5570 5577 5588 5597 5605 5612